GW0416 Weather Reports


Display with metric or nautical units.
time (UTC)temp
F
wind
direction
speed
MPH
gust
MPH
rain 1hr
in
rain 24hr
in
rain mn
in
humidity
%
barometer
mb
20260506134532 36 184 5.0 8.0 0.00 0.00 0.00 53 1016.3
20260506133031 34 213 4.0 7.0 0.00 0.00 0.00 56 1016.3
20260506131533 33 234 4.0 7.0 0.00 0.00 0.00 56 1016.3
20260506130032 31 262 1.0 4.0 0.00 0.00 0.00 56 1016.4
20260506124528 30 252 2.0 4.0 0.00 0.00 0.00 56 1016.6
20260506123030 30 267 2.0 3.0 0.00 0.00 0.00 56 1016.6
20260506121530 29 268 2.0 4.0 0.00 0.00 0.00 57 1016.7
20260506120034 29 268 2.0 4.0 0.00 0.00 0.00 56 1016.8
20260506114529 30 267 3.0 6.0 0.00 0.00 0.00 55 1017.0
20260506113030 30 268 3.0 6.0 0.00 0.00 0.00 56 1017.1
20260506111530 30 268 5.0 7.0 0.00 0.00 0.00 55 1017.3
20260506110033 30 265 4.0 6.0 0.00 0.00 0.00 55 1017.5
20260506104530 29 265 3.0 6.0 0.00 0.00 0.00 56 1017.4
20260506103033 29 263 3.0 4.0 0.00 0.00 0.00 56 1017.6
20260506101530 29 261 2.0 7.0 0.00 0.00 0.00 55 1017.7
20260506100028 29 263 4.0 7.0 0.00 0.00 0.00 55 1017.8
20260506094530 29 257 2.0 5.0 0.00 0.00 0.00 54 1018.0
20260506093052 29 237 4.0 7.0 0.00 0.00 0.00 53 1018.0
20260506091533 28 259 3.0 7.0 0.00 0.00 0.00 54 1018.2
20260506090029 30 227 3.0 5.0 0.00 0.00 0.00 52 1018.2
20260506084529 31 229 2.0 5.0 0.00 0.00 0.00 52 1018.4
20260506083034 30 336 1.0 2.0 0.00 0.00 0.00 54 1018.5
20260506081532 28 336 1.0 3.0 0.00 0.00 0.00 55 1018.5
20260506073030 29 0 0.0 3.0 0.00 0.00 0.00 55 1018.8
20260506071534 28 0 0.0 4.0 0.00 0.00 0.00 54 1018.8
20260506061540 30 326 2.0 7.0 0.00 0.00 0.00 54 1019.2
20260506044529 34 336 2.0 4.0 0.00 0.00 0.00 47 1019.3
20260506043033 35 351 2.0 4.0 0.00 0.00 0.00 45 1019.4
20260506041530 36 355 3.0 4.0 0.00 0.00 0.00 45 1019.5
20260506040028 35 344 2.0 5.0 0.00 0.00 0.00 44 1019.6
20260506034528 38 34 5.0 6.0 0.00 0.00 0.00 42 1019.4
20260506033034 38 35 5.0 6.0 0.00 0.00 0.00 42 1019.3
20260506031533 38 36 6.0 9.0 0.00 0.00 0.00 41 1019.3
20260506030033 39 32 7.0 9.0 0.00 0.00 0.00 41 1019.2
20260506024528 39 26 6.0 11.0 0.00 0.00 0.00 40 1019.2
20260506023028 41 19 9.0 12.0 0.00 0.00 0.00 38 1019.1
20260506021532 43 22 12.0 16.0 0.00 0.00 0.00 36 1019.0
20260506020105 43 5 12.0 21.0 0.00 0.00 0.00 36 1019.0
20260506014531 44 13 13.0 22.0 0.00 0.00 0.00 36 1019.0
20260506013031 44 346 11.0 24.0 0.00 0.00 0.00 34 1018.8
20260506011530 45 9 14.0 22.0 0.00 0.00 0.00 34 1018.7
20260506010031 45 15 13.0 24.0 0.00 0.00 0.00 35 1018.7
20260506004526 46 19 17.0 26.0 0.00 0.00 0.00 35 1018.7
20260506003030 46 344 14.0 21.0 0.00 0.00 0.00 34 1018.7
20260506001533 46 33 16.0 26.0 0.00 0.00 0.00 34 1018.7
20260506000050 46 346 13.0 25.0 0.00 0.00 0.00 35 1018.6
20260505234534 47 18 15.0 27.0 0.00 0.00 0.00 35 1018.7
20260505233030 47 5 17.0 28.0 0.00 0.00 0.00 34 1018.7
20260505231530 46 334 19.0 25.0 0.00 0.00 0.00 34 1018.6
20260505230041 46 335 18.0 27.0 0.00 0.00 0.00 33 1018.6
20260505224528 47 15 23.0 30.0 0.00 0.00 0.00 34 1018.7
20260505223037 47 355 18.0 28.0 0.00 0.00 0.00 33 1018.6
20260505221530 47 13 20.0 30.0 0.00 0.00 0.00 35 1018.5
20260505220028 45 352 22.0 30.0 0.00 0.00 0.00 36 1018.7
20260505214532 46 5 19.0 34.0 0.00 0.00 0.00 34 1018.7
20260505213030 46 5 19.0 27.0 0.00 0.00 0.00 36 1018.8
20260505211541 46 322 20.0 27.0 0.00 0.00 0.00 37 1019.0
20260505210033 46 5 14.0 32.0 0.00 0.00 0.00 38 1019.0
20260505204534 45 344 21.0 31.0 0.00 0.00 0.00 37 1019.0
20260505203032 46 355 18.0 33.0 0.00 0.00 0.00 38 1019.0
20260505201533 46 349 19.0 28.0 0.00 0.00 0.00 38 1019.1
20260505200030 45 340 20.0 32.0 0.00 0.00 0.00 40 1019.0
20260505194532 44 335 18.0 30.0 0.00 0.00 0.00 40 1019.1
20260505193032 45 344 20.0 28.0 0.00 0.00 0.00 38 1019.1
20260505191535 45 5 20.0 31.0 0.00 0.00 0.00 39 1019.2
20260505190029 44 350 23.0 34.0 0.00 0.00 0.00 40 1019.1
20260505184539 44 14 18.0 32.0 0.00 0.00 0.00 42 1019.0
20260505183031 43 317 20.0 29.0 0.00 0.00 0.00 44 1019.3
20260505181537 44 309 16.0 28.0 0.00 0.00 0.00 44 1019.1
20260505180033 43 341 20.0 29.0 0.00 0.00 0.00 44 1019.1
20260505174537 43 344 18.0 27.0 0.00 0.00 0.00 43 1019.1
20260505173031 42 326 15.0 24.0 0.00 0.00 0.00 47 1019.2
20260505171538 41 348 15.0 25.0 0.00 0.00 0.00 46 1019.4
20260505170032 41 319 16.0 22.0 0.00 0.00 0.00 50 1019.5
20260505164533 40 31 18.0 25.0 0.00 0.00 0.00 51 1019.6
20260505163032 40 26 14.0 21.0 0.00 0.00 0.00 52 1019.6
20260505161532 39 332 10.0 16.0 0.00 0.00 0.00 55 1019.7
20260505153039 38 338 12.0 18.0 0.00 0.00 0.00 58 1019.7
20260505151532 38 23 13.0 20.0 0.00 0.00 0.00 58 1019.9